sat.trackr.live / text

‹ back to catalog

STARLINK-34578

NORAD 64856 · 2025-152Q

PAYLOAD ACTIVE UNKNOWN

§ Identity

Operator
Country
US
Launch date
2025-07-19
Launch site
AFWTR
Launch vehicle
Mass (kg)
RCS (m²)

Purposes: comms

External: N2YO · Heavens-Above · Gunter

§ Orbital elements

Epoch: 2026-09-20T13:21:30.393792Z

Period
93.91 min
Inclination
97.2851°
Eccentricity
0.0001715
Mean motion
15.33443532 rev/d
Perigee alt
464.4 km
Apogee alt
466.7 km
Semi-major
6,843.7 km
B*
1.6080e-4
RAAN
114.1409°
Arg perigee
93.0163°
Mean anomaly
267.1276°
Rev number
6,483

§ Raw data

STARLINK-345781 64856U 25152Q   26263.55660178  .00005119  00000+0  16080-3 0  99942 64856  97.2851 114.1409 0001715  93.0163 267.1276 15.33443532 64834

JSON: /api/v1/satellites/64856 · /tle

For live sub-satellite position, see the globe view (requires WebGL).

§ Visibility from observer

Set your observer location to see the next 7 days of passes ≥ 10°. The values pass through the URL so the page stays shareable.

No JS? Fill the form by hand. The geolocation button needs JavaScript.